Погода в Воздвиженке

Россия / Приморский край     43°53′32″N   131°56′50″E
темп.,
°C
ветер,
м/с
пор.,
м/с
влажн.,
%
обл.,
%
осадки,
мм/ч
давл.,
гПа
погр.,
м
12 мая, ср
ср1201:00+7ююз716888 0.0 1019494
04:00+6ю5148930 0.0 1018544
07:00+6ю51387100 0.0 1018587
10:00+11ююз10156799 0.0 10161017
13:00+13ююз11166195 0.0 10151196
16:00+11ююз101774100 0.0 10141200
19:00+9ю81689100 1.6 1014931
22:00+9ююз9189036 1.6 1014767
13 мая, чт
чт1301:00+9ююз91990100 0.0 1013666
04:00+8ююз9179176 0.0 1013554
07:00+9ю8159022 0.0 1013477
10:00+13ююз10127991 0.0 1013650
13:00+16ю91065100 0.0 1012664
16:00+16ю91267100 0.0 1011562
19:00+14ю7127567 0.0 1011368
22:00+11ю6118430 0.2 1013281
14 мая, пт
пт1401:00+10ю4108449 0.0 1012229
04:00+8ю499142 0.0 1013177
07:00+9ю388851 0.0 1013200
10:00+16ю456472 0.0 1013408
13:00+21ю5648100 0.0 1011800
16:00+20ю81255100 0.0 1010692
19:00+15ю81660100 0.0 1010496
22:00+13ю71662100 0.1 1011568
15 мая, сб
сб1501:00+11ю71691100 1.8 1009605
04:00+12ю81989100 2.6 1008602
07:00+11ю91791100 0.0 1007436
10:00+15ююз9127988 0.0 1007494
13:00+16зюз1476100 0.0 1008339
16:00+14ссв3574100 0.1 1008306
19:00+13с3656100 0.0 1008241
22:00+12ююз0066100 0.1 101011
16 мая, вс
вс1601:00+12юз1168100 0.0 100913
04:00+11ю1171100 0.0 100810
07:00+11ююз1174100 0.0 100816
10:00+16юз225528 0.0 1008464
13:00+21зюз1339100 0.0 10061206
16:00+24зсз3627100 0.0 10042623
19:00+20зсз484498 0.0 1004200
22:00+15юз2254100 0.0 100621